TimeCDT,TemperatureF,Dew PointF,Humidity,Sea Level PressureIn,VisibilityMPH,Wind Direction,Wind SpeedMPH,Gust SpeedMPH,PrecipitationIn,Events,Conditions,WindDirDegrees,DateUTC
12:15 AM,57.2,34.7,43,29.83,10.0,SSW,11.5,18.4,N/A,,Clear,210,2012-10-09 05:15:00
12:35 AM,57.2,35.1,43,29.83,10.0,SSW,12.7,18.4,N/A,,Clear,210,2012-10-09 05:35:00
12:55 AM,56.5,35.2,45,29.83,10.0,SW,10.4,17.3,N/A,,Clear,220,2012-10-09 05:55:00
1:15 AM,55.9,35.6,46,29.83,10.0,SW,10.4,-,N/A,,Clear,220,2012-10-09 06:15:00
1:55 AM,54.9,36.1,49,29.83,10.0,SSW,9.2,16.1,N/A,,Clear,210,2012-10-09 06:55:00
2:15 AM,54.0,36.1,51,29.84,10.0,SW,8.1,-,N/A,,Clear,220,2012-10-09 07:15:00
2:55 AM,49.8,36.0,59,29.85,10.0,Calm,Calm,-,N/A,,Clear,0,2012-10-09 07:55:00
3:15 AM,49.1,36.1,61,29.85,10.0,Calm,Calm,-,N/A,,Clear,0,2012-10-09 08:15:00
3:35 AM,46.8,36.7,68,29.85,10.0,Calm,Calm,-,N/A,,Clear,0,2012-10-09 08:35:00
3:55 AM,45.5,35.8,69,29.84,10.0,Calm,Calm,-,N/A,,Clear,0,2012-10-09 08:55:00
4:15 AM,43.5,34.7,71,29.84,10.0,Calm,Calm,-,N/A,,Clear,0,2012-10-09 09:15:00
4:35 AM,42.3,34.3,74,29.84,10.0,Calm,Calm,-,N/A,,Clear,0,2012-10-09 09:35:00
4:55 AM,43.2,34.9,73,29.84,10.0,South,3.5,-,N/A,,Clear,190,2012-10-09 09:55:00
5:15 AM,43.2,35.4,74,29.84,10.0,South,6.9,-,N/A,,Clear,190,2012-10-09 10:15:00
5:35 AM,44.4,35.8,72,29.83,10.0,South,5.8,-,N/A,,Clear,180,2012-10-09 10:35:00
5:55 AM,45.3,36.0,70,29.82,10.0,South,9.2,-,N/A,,Clear,180,2012-10-09 10:55:00
6:15 AM,45.9,36.1,69,29.82,10.0,South,8.1,-,N/A,,Clear,190,2012-10-09 11:15:00
6:35 AM,46.8,36.5,67,29.84,10.0,Calm,Calm,-,N/A,,Clear,0,2012-10-09 11:35:00
6:55 AM,45.9,36.5,70,29.85,10.0,Calm,Calm,-,N/A,,Clear,0,2012-10-09 11:55:00
7:15 AM,44.8,36.5,73,29.85,10.0,Calm,Calm,-,N/A,,Clear,0,2012-10-09 12:15:00
7:35 AM,45.7,36.5,70,29.86,10.0,WNW,3.5,-,N/A,,Clear,290,2012-10-09 12:35:00
7:55 AM,45.5,36.5,71,29.87,10.0,NW,4.6,-,N/A,,Clear,320,2012-10-09 12:55:00
8:15 AM,45.1,36.5,72,29.88,10.0,Calm,Calm,-,N/A,,Clear,0,2012-10-09 13:15:00
8:35 AM,45.5,37.4,73,29.88,10.0,Calm,Calm,-,N/A,,Clear,0,2012-10-09 13:35:00
8:55 AM,46.6,37.4,70,29.89,10.0,Calm,Calm,-,N/A,,Clear,0,2012-10-09 13:55:00
9:15 AM,47.1,37.4,69,29.91,10.0,Calm,Calm,-,N/A,,Clear,0,2012-10-09 14:15:00
9:35 AM,47.8,37.4,67,29.92,10.0,WNW,3.5,-,N/A,,Clear,290,2012-10-09 14:35:00
9:55 AM,49.5,37.9,65,29.93,10.0,NW,3.5,-,N/A,,Clear,310,2012-10-09 14:55:00
10:15 AM,51.4,39.6,64,29.95,10.0,North,8.1,-,N/A,,Scattered Clouds,360,2012-10-09 15:15:00
10:35 AM,54.5,42.8,65,29.95,10.0,North,16.1,20.7,N/A,,Mostly Cloudy,10,2012-10-09 15:35:00
10:55 AM,55.4,42.4,62,29.96,10.0,NNE,17.3,24.2,N/A,,Overcast,20,2012-10-09 15:55:00
11:15 AM,55.4,41.9,60,29.97,10.0,NNE,18.4,25.3,N/A,,Scattered Clouds,30,2012-10-09 16:15:00
11:35 AM,57.6,41.4,55,29.98,10.0,North,19.6,26.5,N/A,,Clear,360,2012-10-09 16:35:00
11:55 AM,57.6,40.5,53,29.98,10.0,North,18.4,31.1,N/A,,Scattered Clouds,10,2012-10-09 16:55:00
12:15 PM,56.3,39.7,54,29.98,10.0,North,16.1,27.6,N/A,,Scattered Clouds,10,2012-10-09 17:15:00
12:35 PM,55.4,39.7,56,29.99,10.0,North,19.6,28.8,N/A,,Scattered Clouds,10,2012-10-09 17:35:00
12:55 PM,54.9,39.2,56,30.00,10.0,North,16.1,27.6,N/A,,Scattered Clouds,360,2012-10-09 17:55:00
1:15 PM,54.0,37.9,55,30.00,10.0,North,17.3,25.3,N/A,,Clear,10,2012-10-09 18:15:00
1:35 PM,56.7,36.1,46,30.00,10.0,NNE,15.0,25.3,N/A,,Clear,20,2012-10-09 18:35:00
1:55 PM,57.6,33.4,40,30.00,10.0,North,17.3,-,N/A,,Clear,10,2012-10-09 18:55:00
2:15 PM,58.8,32.0,36,30.00,10.0,North,15.0,26.5,N/A,,Clear,10,2012-10-09 19:15:00
2:35 PM,58.3,30.2,34,30.00,10.0,NNE,17.3,27.6,N/A,,Clear,20,2012-10-09 19:35:00
2:55 PM,57.7,29.3,34,30.00,10.0,North,12.7,20.7,N/A,,Clear,10,2012-10-09 19:55:00
3:15 PM,58.8,25.7,28,30.02,10.0,North,13.8,18.4,N/A,,Clear,360,2012-10-09 20:15:00
3:35 PM,58.3,21.0,24,30.02,10.0,North,16.1,26.5,N/A,,Scattered Clouds,360,2012-10-09 20:35:00
3:55 PM,58.5,21.0,24,30.03,10.0,North,13.8,23.0,N/A,,Scattered Clouds,10,2012-10-09 20:55:00
4:15 PM,60.4,20.1,21,30.03,10.0,North,13.8,18.4,N/A,,Scattered Clouds,10,2012-10-09 21:15:00
4:35 PM,59.2,19.9,22,30.04,10.0,North,13.8,18.4,N/A,,Scattered Clouds,350,2012-10-09 21:35:00
4:55 PM,59.0,20.8,23,30.04,10.0,NNW,11.5,17.3,N/A,,Clear,340,2012-10-09 21:55:00
5:15 PM,58.1,21.4,24,30.05,10.0,North,13.8,20.7,N/A,,Clear,10,2012-10-09 22:15:00
5:35 PM,57.2,21.6,25,30.05,10.0,North,12.7,-,N/A,,Clear,10,2012-10-09 22:35:00
5:55 PM,56.8,21.9,26,30.05,10.0,NNW,9.2,-,N/A,,Clear,340,2012-10-09 22:55:00
6:15 PM,56.3,22.1,27,30.05,10.0,North,5.8,-,N/A,,Clear,350,2012-10-09 23:15:00
6:35 PM,54.9,22.8,29,30.05,10.0,North,3.5,-,N/A,,Clear,350,2012-10-09 23:35:00
6:55 PM,52.9,23.0,31,30.06,10.0,NNW,3.5,-,N/A,,Clear,340,2012-10-09 23:55:00
7:15 PM,51.6,23.0,33,30.07,10.0,North,5.8,-,N/A,,Clear,350,2012-10-10 00:15:00
7:35 PM,50.9,23.0,34,30.08,10.0,North,4.6,-,N/A,,Clear,360,2012-10-10 00:35:00
7:55 PM,48.9,23.7,37,30.08,10.0,NNW,3.5,-,N/A,,Clear,340,2012-10-10 00:55:00
8:15 PM,47.5,24.6,41,30.10,10.0,Calm,Calm,-,N/A,,Clear,0,2012-10-10 01:15:00
8:35 PM,46.2,24.4,42,30.11,10.0,NW,3.5,-,N/A,,Clear,310,2012-10-10 01:35:00
8:55 PM,44.6,24.4,45,30.12,10.0,Calm,Calm,-,N/A,,Clear,0,2012-10-10 01:55:00
9:15 PM,43.5,25.2,48,30.12,10.0,WNW,3.5,-,N/A,,Clear,290,2012-10-10 02:15:00
9:35 PM,42.8,24.8,49,30.13,7.0,Calm,Calm,-,N/A,,Clear,0,2012-10-10 02:35:00
9:55 PM,40.3,24.8,54,30.14,10.0,NW,3.5,-,N/A,,Clear,310,2012-10-10 02:55:00
10:15 PM,39.6,25.5,57,30.15,10.0,Calm,Calm,-,N/A,,Clear,0,2012-10-10 03:15:00
10:35 PM,38.7,25.0,58,30.16,10.0,Calm,Calm,-,N/A,,Clear,0,2012-10-10 03:35:00
10:55 PM,35.8,25.7,67,30.17,10.0,Calm,Calm,-,N/A,,Clear,0,2012-10-10 03:55:00
11:15 PM,36.5,25.3,64,30.17,10.0,West,3.5,-,N/A,,Clear,260,2012-10-10 04:15:00
11:35 PM,36.3,24.8,63,30.18,10.0,Calm,Calm,-,N/A,,Clear,0,2012-10-10 04:35:00
11:55 PM,35.4,25.5,67,30.18,10.0,WSW,3.5,-,N/A,,Clear,250,2012-10-10 04:55:00